QPF
0.02 0.07 0.10 0.05 0.01 0.00 0.00 0.00 0.00 0.00 0.00 0.00 0.00 0.00 0.00 0.00 0.00 0.00 0.00 0.00 0.00 0.00 0.00 0.00 0.00 0.00 0.00 0.00 0.00 0.00 0.00 0.00 0.00 0.00 0.00 0.00 0.00 0.00 0.00 0.00 0.00 0.00 0.00 0.00
0.03 0.06 0.03 0.04 0.01 0.00 0.00 0.00 0.00 0.00 0.00 0.00 0.00 0.00 0.00 0.00 0.00 0.00 0.00 0.00 0.00 0.00 0.00 0.00 0.00 0.00 0.00 0.00 0.00 0.00 0.00 0.00 0.00 0.00 0.00 0.00 0.00 0.00 0.00 0.00 0.00 0.00 0.00 0.00
0.04 0.06 0.03 0.05 0.02 0.01 0.00 0.00 0.00 0.00 0.00 0.00 0.00 0.00 0.00 0.00 0.00 0.00 0.00 0.00 0.00 0.00 0.00 0.00 0.00 0.00 0.00 0.00 0.00 0.00 0.00 0.00 0.00 0.00 0.00 0.00 0.00 0.00 0.00 0.00 0.00 0.00 0.00 0.00
0.02 0.11 0.08 0.04 0.01 0.01 0.00 0.00 0.00 0.00 0.00 0.00 0.00 0.00 0.00 0.00 0.00 0.00 0.00 0.00 0.00 0.00 0.00 0.00 0.00 0.00 0.00 0.00 0.00 0.00 0.00 0.00 0.00 0.00 0.00 0.00 0.00 0.00 0.00 0.00 0.00 0.00 0.00 0.00
0.10 0.16 0.13 0.04 0.02 0.00 0.00 0.00 0.00 0.00 0.00 0.00 0.00 0.00 0.00 0.00 0.00 0.00 0.00 0.00 0.00 0.00 0.00 0.00 0.00 0.00 0.00 0.00 0.00 0.00 0.00 0.00 0.00 0.00 0.00 0.00 0.00 0.00 0.00 0.00 0.00 0.00 0.00 0.00
0.07 0.11 0.11 0.01 0.00 0.01 0.00 0.00 0.00 0.00 0.00 0.00 0.00 0.00 0.00 0.00 0.00 0.00 0.00 0.00 0.00 0.00 0.00 0.00 0.00 0.00 0.00 0.00 0.00 0.00 0.00 0.00 0.00 0.00 0.00 0.00 0.00 0.00 0.00 0.00 0.00 0.00 0.00 0.00
0.26 0.17 0.18 0.02 0.03 0.03 0.00 0.01 0.03 0.01 0.00 0.00 0.00 0.00 0.00 0.00 0.00 0.00 0.00 0.00 0.00 0.00 0.00 0.00 0.00 0.00 0.00 0.00 0.00 0.00 0.00 0.00 0.00 0.00 0.00 0.00 0.00 0.00 0.00 0.00 0.00 0.00 0.00 0.00
0.30 0.19 0.18 0.02 0.04 0.06 0.01 0.00 0.01 0.01 0.00 0.00 0.00 0.00 0.00 0.00 0.00 0.00 0.00 0.00 0.00 0.00 0.00 0.00 0.00 0.00 0.00 0.00 0.00 0.00 0.00 0.00 0.00 0.00 0.00 0.00 0.00 0.00 0.00 0.00 0.00 0.00 0.00 0.00
0.13 0.16 0.05 0.01 0.04 0.01 0.04 0.02 0.00 0.00 0.00 0.00 0.00 0.00 0.00 0.00 0.00 0.00 0.00 0.00 0.00 0.00 0.00 0.00 0.00 0.00 0.00 0.00 0.00 0.00 0.00 0.00 0.00 0.00 0.00 0.00 0.00 0.00 0.00 0.00 0.00 0.00 0.00 0.00
0.03 0.05 0.01 0.01 0.06 0.04 0.02 0.02 0.00 0.00 0.00 0.00 0.00 0.00 0.00 0.00 0.00 0.00 0.00 0.00 0.00 0.00 0.00 0.00 0.00 0.00 0.00 0.00 0.00 0.00 0.00 0.00 0.00 0.00 0.00 0.00 0.00 0.00 0.00 0.00 0.00 0.00 0.00 0.00
0.00 0.01 0.01 0.00 0.03 0.03 0.00 0.03 0.02 0.00 0.00 0.00 0.00 0.00 0.00 0.00 0.00 0.00 0.00 0.00 0.00 0.00 0.00 0.00 0.00 0.00 0.00 0.00 0.00 0.00 0.00 0.00 0.00 0.00 0.00 0.00 0.00 0.00 0.00 0.00 0.00 0.00 0.00 0.00
0.00 0.00 0.00 0.00 0.00 0.00 0.00 0.00 0.00 0.00 0.00 0.00 0.00 0.00 0.00 0.00 0.00 0.00 0.00 0.00 0.00 0.00 0.00 0.00 0.00 0.00 0.00 0.00 0.00 0.00 0.00 0.00 0.00 0.00 0.00 0.00 0.00 0.00 0.00 0.00 0.00 0.00 0.00 0.00
0.00 0.00 0.00 0.00 0.00 0.00 0.00 0.00 0.00 0.00 0.00 0.00 0.00 0.00 0.00 0.00 0.00 0.00 0.00 0.00 0.00 0.00 0.00 0.00 0.00 0.00 0.00 0.00 0.00 0.00 0.00 0.00 0.00 0.00 0.00 0.00 0.00 0.00 0.00 0.00 0.00 0.00 0.00 0.00
0.00 0.00 0.00 0.00 0.00 0.00 0.00 0.00 0.00 0.00 0.00 0.00 0.00 0.00 0.00 0.00 0.00 0.00 0.00 0.00 0.00 0.00 0.00 0.00 0.00 0.00 0.00 0.00 0.00 0.00 0.00 0.00 0.00 0.00 0.00 0.00 0.00 0.00 0.00 0.00 0.00 0.00 0.00 0.00
0.00 0.00 0.00 0.00 0.00 0.00 0.00 0.00 0.00 0.00 0.00 0.00 0.00 0.00 0.00 0.00 0.00 0.00 0.00 0.00 0.00 0.00 0.00 0.00 0.00 0.00 0.00 0.00 0.00 0.00 0.00 0.00 0.00 0.00 0.00 0.00 0.00 0.00 0.00 0.00 0.00 0.00 0.00 0.00
0.00 0.00 0.00 0.00 0.00 0.00 0.00 0.00 0.00 0.00 0.00 0.00 0.00 0.00 0.00 0.00 0.00 0.00 0.00 0.00 0.00 0.00 0.00 0.00 0.00 0.00 0.00 0.00 0.00 0.00 0.00 0.00 0.00 0.00 0.00 0.00 0.00 0.00 0.00 0.00 0.00 0.00 0.00 0.00
0.00 0.00 0.00 0.00 0.00 0.00 0.00 0.00 0.00 0.00 0.00 0.00 0.00 0.00 0.00 0.00 0.00 0.00 0.00 0.00 0.00 0.00 0.00 0.00 0.00 0.00 0.00 0.00 0.00 0.00 0.00 0.00 0.00 0.00 0.00 0.00 0.00 0.00 0.00 0.00 0.00 0.00 0.00 0.00
0.00 0.01 0.00 0.00 0.01 0.00 0.00 0.00 0.00 0.00 0.00 0.00 0.00 0.00 0.00 0.00 0.00 0.00 0.00 0.00 0.00 0.00 0.00 0.00 0.00 0.00 0.00 0.00 0.00 0.00 0.00 0.00 0.00 0.00 0.00 0.00 0.00 0.00 0.00 0.00 0.00 0.00 0.00 0.00
0.00 0.06 0.06 0.00 0.01 0.00 0.00 0.00 0.00 0.00 0.00 0.00 0.00 0.00 0.00 0.00 0.00 0.00 0.00 0.00 0.00 0.00 0.00 0.00 0.00 0.00 0.00 0.00 0.00 0.00 0.00 0.00 0.00 0.00 0.00 0.00 0.00 0.00 0.00 0.00 0.00 0.00 0.00 0.00
0.00 0.06 0.11 0.01 0.00 0.00 0.00 0.00 0.00 0.00 0.00 0.00 0.00 0.00 0.00 0.00 0.00 0.00 0.00 0.00 0.00 0.00 0.00 0.00 0.00 0.00 0.00 0.00 0.00 0.00 0.00 0.00 0.00 0.00 0.00 0.00 0.00 0.00 0.00 0.00 0.00 0.00 0.00 0.00
0.00 0.01 0.02 0.02 0.02 0.00 0.00 0.00 0.00 0.00 0.00 0.00 0.00 0.00 0.00 0.00 0.00 0.00 0.00 0.00 0.00 0.00 0.00 0.00 0.00 0.00 0.00 0.00 0.00 0.00 0.00 0.00 0.00 0.00 0.00 0.00 0.00 0.00 0.00 0.00 0.00 0.00 0.00 0.00
0.00 0.00 0.00 0.00 0.01 0.00 0.00 0.00 0.00 0.00 0.00 0.00 0.00 0.00 0.00 0.00 0.00 0.00 0.00 0.00 0.00 0.00 0.00 0.00 0.00 0.00 0.00 0.00 0.00 0.00 0.00 0.00 0.00 0.00 0.00 0.00 0.00 0.00 0.00 0.00 0.00 0.00 0.00 0.00
0.00 0.00 0.00 0.00 0.00 0.00 0.00 0.00 0.00 0.00 0.00 0.00 0.00 0.00 0.00 0.00 0.00 0.00 0.00 0.00 0.00 0.00 0.00 0.00 0.00 0.00 0.00 0.00 0.00 0.00 0.00 0.00 0.00 0.00 0.00 0.00 0.00 0.00 0.00 0.00 0.00 0.00 0.00 0.00
0.00 0.00 0.00 0.00 0.00 0.00 0.00 0.00 0.00 0.00 0.00 0.00 0.00 0.00 0.00 0.00 0.00 0.00 0.00 0.00 0.00 0.00 0.00 0.00 0.00 0.00 0.00 0.00 0.00 0.00 0.00 0.00 0.00 0.00 0.00 0.00 0.00 0.00 0.00 0.00 0.00 0.00 0.00 0.00
0.00 0.00 0.00 0.00 0.00 0.00 0.00 0.00 0.00 0.00 0.00 0.00 0.00 0.00 0.00 0.00 0.00 0.00 0.00 0.00 0.00 0.00 0.00 0.00 0.00 0.00 0.00 0.00 0.00 0.00 0.00 0.00 0.00 0.00 0.00 0.00 0.00 0.00 0.00 0.00 0.00 0.00 0.00 0.00
0.00 0.00 0.00 0.00 0.00 0.00 0.00 0.00 0.00 0.00 0.00 0.00 0.00 0.00 0.00 0.00 0.00 0.00 0.00 0.00 0.00 0.00 0.00 0.00 0.00 0.00 0.00 0.00 0.00 0.00 0.00 0.00 0.00 0.00 0.00 0.00 0.00 0.00 0.00 0.00 0.00 0.00 0.00 0.00
MSLP
1013.54 1014.06 1011.99 1011.12 1010.80 1009.89 1009.30 1008.90 1008.86 1009.16 1009.41 1009.63 1008.90 1007.93 1007.71 1007.35 1007.54 1007.61 1007.89 1008.59 1009.20 1009.95 1010.95 1011.22 1011.26 1011.08 1011.07 1010.90 1010.67 1010.61 1010.65 1010.66 1010.56 1010.63 1010.90 1011.57 1012.21 1012.59 1012.99 1013.31 1013.39 1013.41 1013.39 1013.21
1012.93 1012.20 1011.60 1010.66 1010.57 1009.89 1009.05 1008.95 1008.85 1008.79 1009.62 1009.63 1008.56 1007.53 1007.10 1006.63 1007.03 1007.25 1007.65 1008.34 1009.07 1010.18 1010.92 1011.38 1011.48 1011.51 1011.57 1011.49 1011.35 1011.31 1011.38 1011.39 1011.44 1011.69 1012.03 1012.51 1012.83 1013.27 1013.57 1013.90 1014.09 1014.01 1013.98 1013.92
1011.88 1011.28 1010.85 1010.62 1009.66 1009.35 1008.96 1008.86 1008.66 1008.93 1009.69 1009.66 1008.88 1006.89 1006.28 1006.93 1007.35 1007.67 1007.84 1008.38 1009.20 1009.94 1010.80 1011.37 1011.73 1011.95 1012.10 1012.21 1012.32 1012.00 1012.00 1012.32 1012.43 1012.55 1013.05 1013.39 1013.60 1013.71 1013.91 1014.27 1014.43 1014.66 1014.59 1014.62
1011.76 1011.05 1010.56 1009.67 1008.98 1009.07 1008.53 1008.78 1009.03 1009.59 1009.82 1008.77 1008.80 1006.54 1005.91 1005.91 1006.75 1007.43 1007.90 1008.57 1009.36 1010.03 1010.95 1011.58 1011.97 1012.31 1012.68 1013.04 1012.95 1012.75 1012.92 1013.05 1013.26 1013.35 1013.38 1013.52 1013.83 1014.25 1014.75 1014.83 1015.11 1015.08 1015.19 1015.16
1011.01 1010.41 1009.84 1009.30 1008.54 1008.64 1008.34 1009.08 1009.37 1009.84 1009.83 1009.41 1008.40 1007.59 1005.22 1006.03 1006.17 1006.93 1007.68 1008.49 1009.44 1010.25 1010.99 1011.87 1012.35 1012.85 1013.28 1013.51 1013.54 1013.59 1013.66 1013.77 1014.05 1014.21 1014.17 1014.20 1014.52 1014.98 1015.39 1015.42 1015.30 1015.35 1015.39 1015.52
1010.29 1010.37 1010.10 1008.16 1008.73 1008.63 1009.12 1009.49 1010.04 1010.15 1010.10 1008.98 1007.47 1007.15 1004.71 1004.82 1005.27 1006.17 1007.58 1008.50 1009.49 1010.37 1011.30 1012.07 1012.68 1013.08 1013.54 1013.97 1014.07 1014.12 1014.25 1014.60 1014.78 1014.85 1015.01 1015.13 1015.37 1015.55 1015.67 1015.76 1015.57 1015.55 1015.57 1015.63
1011.10 1010.66 1009.25 1007.87 1008.64 1009.28 1008.72 1009.27 1010.06 1010.25 1009.87 1007.97 1007.76 1007.09 1004.62 1005.01 1005.66 1006.08 1007.00 1008.14 1009.22 1010.33 1011.41 1012.10 1012.58 1013.09 1013.65 1014.15 1014.52 1014.66 1014.88 1015.08 1015.38 1015.57 1015.74 1015.90 1016.08 1016.17 1016.17 1016.05 1015.95 1015.85 1015.73 1015.83
1010.55 1009.43 1008.42 1007.66 1008.06 1008.82 1008.68 1008.34 1007.71 1007.56 1007.65 1007.20 1007.89 1005.83 1004.61 1005.32 1005.78 1006.27 1006.61 1007.81 1009.03 1010.14 1011.20 1011.90 1012.45 1013.15 1013.86 1014.42 1014.80 1015.10 1015.39 1015.58 1015.84 1016.13 1016.25 1016.34 1016.53 1016.61 1016.60 1016.64 1016.57 1016.44 1016.41 1016.37
1009.88 1009.15 1008.13 1007.79 1008.36 1008.46 1009.41 1008.82 1008.25 1007.80 1007.94 1006.95 1005.78 1005.18 1004.95 1005.52 1005.85 1006.39 1006.74 1007.74 1008.88 1009.97 1011.07 1011.91 1012.64 1013.31 1014.02 1014.61 1015.19 1015.56 1015.83 1016.16 1016.44 1016.49 1016.66 1016.73 1016.87 1016.93 1017.01 1017.06 1016.96 1016.95 1016.89 1016.75
1008.57 1008.65 1008.31 1008.59 1008.77 1009.50 1008.36 1008.74 1008.86 1007.97 1006.99 1006.07 1005.27 1004.85 1004.14 1004.97 1005.50 1006.17 1006.65 1007.48 1008.63 1009.98 1011.07 1011.99 1012.79 1013.57 1014.26 1014.99 1015.63 1016.02 1016.22 1016.52 1016.83 1016.97 1017.01 1017.15 1017.23 1017.39 1017.44 1017.40 1017.28 1017.21 1017.05 1016.84
1007.42 1006.83 1008.43 1008.26 1008.37 1008.29 1008.40 1008.59 1008.43 1007.52 1007.03 1005.32 1004.60 1004.25 1004.56 1004.91 1005.32 1005.73 1006.38 1007.25 1008.43 1009.81 1010.90 1011.91 1012.80 1013.82 1014.65 1015.31 1015.85 1016.30 1016.63 1016.87 1017.12 1017.28 1017.42 1017.36 1017.58 1017.75 1017.73 1017.64 1017.55 1017.45 1017.18 1016.98
1006.69 1005.60 1007.07 1007.68 1007.82 1007.45 1007.37 1007.20 1007.51 1006.86 1006.80 1006.23 1005.29 1004.33 1004.88 1005.23 1005.54 1005.96 1006.34 1007.30 1008.60 1009.64 1010.81 1011.84 1012.91 1013.96 1014.73 1015.35 1016.02 1016.43 1016.82 1017.12 1017.38 1017.56 1017.68 1017.82 1017.99 1018.02 1017.85 1017.80 1017.63 1017.58 1017.29 1017.06
1005.46 1005.33 1005.91 1007.33 1007.97 1007.73 1007.22 1007.03 1006.74 1006.32 1006.15 1005.30 1004.78 1004.30 1005.01 1005.23 1005.57 1006.06 1006.51 1007.52 1008.57 1009.68 1010.87 1011.92 1013.01 1013.85 1014.54 1015.37 1016.02 1016.52 1016.97 1017.31 1017.60 1017.78 1017.90 1018.11 1018.14 1018.06 1018.04 1017.88 1017.80 1017.66 1017.49 1017.19
1005.42 1004.71 1004.23 1004.42 1004.73 1005.51 1005.94 1006.05 1006.04 1005.93 1005.39 1004.74 1004.26 1003.93 1004.67 1005.06 1005.60 1006.22 1006.69 1007.49 1008.52 1009.60 1010.77 1011.81 1012.88 1013.66 1014.48 1015.29 1015.97 1016.55 1017.07 1017.44 1017.83 1018.05 1018.16 1018.29 1018.34 1018.42 1018.25 1018.12 1017.98 1017.83 1017.58 1017.14
1005.53 1004.46 1004.60 1004.69 1004.64 1004.67 1004.92 1005.20 1005.38 1005.01 1004.90 1004.20 1003.71 1003.88 1003.93 1004.60 1005.32 1005.86 1006.57 1007.53 1008.40 1009.48 1010.71 1011.70 1012.58 1013.43 1014.39 1015.29 1016.08 1016.72 1017.23 1017.65 1018.04 1018.20 1018.34 1018.63 1018.73 1018.53 1018.34 1018.21 1018.01 1017.73 1017.44 1017.02
1005.26 1004.83 1004.80 1004.86 1005.03 1004.84 1004.66 1004.56 1004.50 1004.39 1004.24 1003.77 1003.85 1003.43 1004.27 1005.06 1005.65 1006.33 1006.85 1007.70 1008.51 1009.46 1010.53 1011.52 1012.43 1013.32 1014.30 1015.23 1016.01 1016.78 1017.34 1017.82 1018.13 1018.27 1018.54 1018.73 1018.63 1018.43 1018.33 1018.14 1017.93 1017.58 1017.17 1016.69
1004.82 1004.88 1005.02 1004.93 1005.25 1005.22 1004.87 1003.96 1003.99 1003.88 1003.78 1003.61 1003.43 1002.82 1004.75 1005.53 1005.99 1006.43 1007.25 1008.12 1008.88 1009.70 1010.57 1011.49 1012.40 1013.43 1014.44 1015.25 1016.04 1016.70 1017.31 1017.86 1018.12 1018.41 1018.55 1018.58 1018.46 1018.38 1018.27 1018.09 1017.73 1017.21 1016.73 1016.24
1004.83 1005.36 1005.72 1006.02 1005.71 1004.94 1003.47 1003.51 1003.06 1003.30 1003.20 1003.42 1003.42 1004.20 1004.73 1005.30 1006.49 1007.64 1008.28 1008.79 1009.60 1010.28 1010.97 1011.75 1012.64 1013.76 1014.67 1015.51 1016.26 1016.89 1017.44 1017.82 1018.19 1018.36 1018.44 1018.45 1018.50 1018.41 1018.20 1017.82 1017.24 1016.74 1016.30 1015.75
1005.37 1006.04 1006.58 1006.34 1006.29 1004.52 1003.73 1003.86 1003.67 1003.41 1002.83 1003.39 1003.68 1004.74 1005.61 1006.71 1007.58 1008.86 1009.61 1010.13 1010.66 1011.20 1011.64 1012.23 1013.10 1014.06 1015.04 1015.74 1016.44 1017.01 1017.52 1017.97 1018.20 1018.30 1018.35 1018.51 1018.53 1018.33 1017.94 1017.39 1016.89 1016.48 1015.94 1015.45
1006.16 1006.46 1007.08 1006.98 1005.90 1004.26 1003.53 1003.61 1003.79 1003.80 1003.35 1003.37 1004.05 1004.98 1006.08 1007.18 1007.73 1008.97 1010.32 1011.05 1011.62 1012.18 1012.68 1013.17 1013.88 1014.64 1015.29 1016.08 1016.69 1017.12 1017.54 1017.99 1018.25 1018.36 1018.51 1018.61 1018.53 1018.24 1017.73 1017.23 1016.82 1016.37 1015.84 1015.12
1006.49 1006.96 1006.77 1006.38 1005.84 1004.47 1003.82 1004.09 1004.41 1004.45 1004.64 1004.61 1005.06 1005.98 1006.98 1007.72 1008.54 1009.86 1010.90 1011.75 1012.38 1012.85 1013.43 1014.02 1014.49 1014.93 1015.59 1016.38 1016.89 1017.22 1017.89 1018.09 1018.46 1018.62 1018.64 1018.52 1018.32 1017.98 1017.63 1017.24 1016.72 1016.24 1015.58 1014.89
1005.01 1005.54 1005.92 1006.53 1006.45 1005.91 1004.62 1005.25 1004.92 1004.84 1005.28 1005.62 1006.25 1006.98 1007.78 1008.71 1009.66 1010.44 1011.29 1012.13 1012.86 1013.45 1014.00 1014.39 1014.81 1015.38 1016.13 1016.69 1017.09 1017.58 1017.94 1018.36 1018.59 1018.58 1018.47 1018.25 1018.02 1017.82 1017.53 1017.08 1016.49 1015.92 1015.18 1014.40
1004.59 1004.23 1004.45 1004.99 1005.13 1005.30 1005.47 1005.30 1005.27 1005.30 1005.52 1006.61 1007.16 1007.91 1008.52 1009.27 1010.03 1010.85 1011.62 1012.34 1012.99 1013.60 1014.16 1014.63 1015.04 1015.73 1016.44 1016.97 1017.42 1017.77 1018.12 1018.50 1018.52 1018.42 1018.21 1017.97 1017.79 1017.52 1017.08 1016.61 1016.09 1015.49 1014.79 1014.06
1004.44 1004.62 1004.37 1005.18 1005.63 1005.87 1005.98 1006.03 1006.04 1006.18 1006.66 1007.37 1007.97 1008.64 1009.21 1009.78 1010.54 1011.21 1011.84 1012.43 1012.97 1013.66 1014.29 1014.87 1015.36 1015.84 1016.55 1017.27 1017.74 1018.03 1018.35 1018.56 1018.46 1018.22 1018.03 1017.87 1017.56 1017.17 1016.81 1016.39 1015.84 1015.26 1014.62 1013.98
1004.26 1004.51 1004.78 1005.54 1005.99 1006.24 1006.47 1006.50 1006.82 1007.40 1007.85 1008.36 1009.03 1009.53 1010.00 1010.47 1011.11 1011.60 1012.12 1012.59 1013.14 1013.84 1014.48 1014.95 1015.43 1016.01 1016.64 1017.34 1017.83 1018.23 1018.37 1018.39 1018.22 1018.14 1017.95 1017.59 1017.24 1016.82 1016.37 1015.91 1015.50 1015.11 1014.72 1014.33
1003.98 1003.87 1004.02 1004.13 1004.51 1005.05 1005.96 1006.94 1007.57 1007.95 1008.57 1009.13 1009.63 1010.36 1010.87 1011.16 1011.59 1012.04 1012.43 1012.91 1013.44 1014.01 1014.59 1015.18 1015.70 1016.24 1016.96 1017.48 1017.73 1017.90 1018.13 1018.31 1018.34 1018.05 1017.64 1017.40 1017.06 1016.46 1016.00 1015.40 1014.80 1014.57 1014.24 1013.91
Thickness
5536 5534 5562 5596 5606 5628 5637 5649 5645 5654 5657 5653 5662 5676 5683 5695 5697 5700 5702 5700 5700 5698 5694 5695 5698 5702 5703 5704 5705 5705 5702 5702 5702 5700 5695 5688 5679 5674 5667 5661 5657 5653 5651 5649
5533 5540 5578 5598 5608 5618 5637 5635 5640 5653 5648 5651 5662 5674 5686 5696 5697 5701 5700 5697 5696 5690 5689 5688 5690 5692 5692 5693 5694 5693 5691 5691 5689 5685 5681 5675 5669 5662 5656 5650 5645 5643 5639 5636
5537 5561 5583 5590 5609 5614 5624 5629 5639 5642 5642 5645 5652 5675 5685 5683 5686 5688 5695 5696 5693 5689 5684 5683 5682 5681 5681 5680 5679 5682 5681 5677 5675 5673 5666 5659 5655 5651 5647 5640 5636 5630 5627 5624
5543 5566 5576 5593 5604 5615 5619 5639 5636 5630 5626 5637 5651 5657 5680 5692 5684 5683 5686 5687 5685 5683 5680 5676 5674 5672 5670 5668 5669 5671 5668 5665 5662 5660 5656 5650 5645 5637 5631 5628 5623 5619 5614 5611
5544 5560 5570 5588 5609 5622 5626 5630 5629 5625 5623 5630 5646 5646 5684 5674 5679 5679 5683 5684 5681 5678 5675 5668 5665 5661 5660 5659 5659 5659 5657 5654 5650 5645 5643 5639 5633 5625 5619 5615 5613 5609 5605 5600
5559 5570 5571 5611 5612 5618 5618 5617 5614 5619 5618 5622 5652 5649 5678 5682 5686 5684 5680 5679 5675 5672 5667 5661 5657 5655 5652 5650 5650 5649 5646 5641 5637 5634 5630 5625 5620 5615 5610 5605 5603 5599 5595 5590
5536 5544 5582 5610 5595 5597 5616 5609 5589 5593 5596 5629 5636 5637 5678 5682 5677 5683 5679 5677 5673 5668 5659 5654 5652 5650 5647 5644 5641 5639 5634 5630 5625 5621 5617 5612 5606 5601 5597 5595 5592 5588 5585 5579
5540 5568 5582 5607 5606 5592 5607 5621 5623 5614 5623 5640 5622 5642 5671 5675 5676 5679 5685 5679 5671 5663 5656 5650 5648 5644 5639 5635 5632 5629 5624 5620 5615 5609 5605 5601 5595 5591 5587 5583 5579 5575 5570 5565
5543 5559 5580 5601 5605 5609 5590 5597 5627 5622 5622 5634 5651 5659 5672 5668 5668 5668 5675 5672 5664 5658 5650 5645 5641 5638 5632 5627 5622 5618 5614 5608 5602 5599 5594 5590 5585 5581 5576 5571 5566 5561 5555 5549
5560 5562 5581 5584 5596 5590 5610 5618 5599 5615 5617 5623 5644 5646 5665 5669 5668 5663 5667 5666 5661 5652 5645 5639 5634 5628 5623 5617 5611 5606 5603 5597 5591 5587 5583 5578 5574 5568 5563 5557 5552 5546 5541 5535
5573 5590 5566 5590 5588 5595 5601 5594 5607 5626 5626 5640 5644 5654 5669 5665 5667 5668 5666 5665 5657 5646 5640 5632 5627 5620 5613 5607 5601 5596 5591 5586 5581 5576 5571 5568 5562 5555 5549 5544 5538 5531 5526 5519
5580 5602 5575 5586 5597 5613 5615 5617 5615 5616 5612 5625 5636 5652 5660 5660 5660 5660 5662 5658 5650 5643 5634 5627 5620 5612 5605 5599 5592 5587 5581 5576 5570 5566 5560 5554 5548 5541 5537 5530 5524 5517 5511 5504
5592 5599 5585 5575 5584 5592 5599 5615 5625 5633 5628 5629 5633 5647 5654 5656 5654 5652 5654 5650 5644 5636 5628 5622 5613 5607 5601 5592 5585 5579 5572 5566 5560 5554 5549 5542 5536 5530 5523 5517 5510 5503 5495 5489
5591 5603 5614 5609 5620 5625 5614 5620 5626 5628 5624 5633 5639 5652 5648 5647 5648 5647 5648 5646 5640 5632 5624 5617 5609 5603 5595 5587 5578 5571 5564 5556 5549 5542 5536 5529 5523 5515 5509 5502 5495 5487 5480 5474
5589 5600 5607 5610 5618 5623 5621 5617 5618 5621 5632 5632 5648 5640 5653 5653 5650 5649 5647 5643 5637 5629 5619 5612 5606 5599 5590 5579 5570 5562 5554 5546 5538 5531 5525 5516 5508 5502 5496 5488 5481 5473 5466 5459
5593 5594 5600 5602 5603 5614 5616 5623 5624 5628 5631 5641 5642 5648 5652 5647 5645 5639 5640 5634 5630 5624 5615 5608 5601 5593 5583 5572 5562 5552 5544 5535 5527 5521 5512 5503 5497 5490 5482 5475 5467 5460 5453 5446
5593 5594 5596 5600 5598 5601 5602 5623 5624 5629 5635 5640 5633 5656 5640 5631 5633 5635 5631 5627 5623 5617 5610 5602 5594 5585 5573 5564 5554 5545 5535 5525 5517 5509 5501 5492 5485 5477 5469 5461 5454 5449 5442 5434
5591 5589 5586 5581 5588 5587 5630 5622 5638 5633 5638 5641 5645 5638 5638 5638 5630 5622 5621 5619 5612 5606 5601 5594 5586 5573 5562 5553 5543 5533 5524 5516 5506 5498 5490 5481 5471 5463 5455 5449 5444 5438 5430 5423
5592 5575 5573 5580 5573 5609 5617 5614 5619 5623 5637 5635 5638 5632 5626 5619 5615 5605 5602 5599 5597 5593 5589 5584 5574 5562 5551 5542 5532 5524 5514 5504 5495 5486 5476 5466 5457 5449 5443 5439 5432 5425 5419 5410
5572 5573 5569 5563 5581 5602 5619 5617 5621 5625 5631 5633 5633 5626 5617 5612 5612 5609 5591 5585 5579 5574 5569 5565 5558 5549 5542 5531 5521 5513 5503 5492 5481 5472 5462 5451 5443 5436 5431 5425 5418 5411 5404 5397
5567 5567 5569 5582 5584 5607 5615 5614 5614 5616 5630 5619 5621 5614 5607 5607 5603 5589 5577 5569 5565 5562 5556 5550 5545 5539 5530 5518 5509 5501 5487 5478 5466 5455 5445 5438 5431 5424 5417 5410 5403 5396 5389 5381
5584 5581 5581 5576 5570 5575 5604 5600 5611 5615 5608 5608 5606 5602 5595 5588 5580 5576 5569 5561 5555 5549 5543 5540 5534 5525 5515 5506 5497 5485 5474 5461 5449 5440 5432 5425 5418 5411 5404 5397 5389 5380 5373 5367
5587 5601 5601 5602 5604 5591 5592 5601 5600 5606 5604 5596 5594 5589 5585 5579 5574 5567 5561 5554 5548 5542 5534 5528 5523 5512 5502 5491 5480 5470 5458 5444 5435 5428 5422 5415 5407 5399 5391 5383 5374 5367 5358 5349
5577 5580 5593 5589 5584 5584 5586 5588 5592 5595 5592 5586 5583 5578 5575 5571 5565 5559 5554 5548 5542 5533 5525 5517 5509 5501 5488 5474 5463 5452 5440 5430 5423 5418 5411 5403 5395 5387 5378 5369 5359 5348 5338 5330
5585 5583 5584 5576 5574 5578 5579 5583 5582 5577 5575 5572 5567 5565 5563 5561 5554 5551 5545 5538 5531 5522 5513 5505 5497 5486 5474 5460 5447 5435 5427 5420 5415 5407 5400 5392 5383 5375 5366 5355 5343 5331 5318 5306
5584 5591 5595 5600 5594 5594 5587 5576 5572 5571 5566 5563 5558 5550 5543 5544 5541 5534 5531 5524 5518 5509 5500 5489 5479 5469 5456 5444 5435 5426 5418 5410 5401 5394 5388 5378 5369 5361 5351 5341 5333 5318 5308 5297